Wind_Speed
10 10 9 8 9 13 11 10 11 12 11 11 9 9 9 9 10 9 8 9 9 10 11 11 11 12 11 10 9 8 7 7 7 6 5 3 2 1 1 1 2 2 2 1 1 1 1 1 1
9 9 8 8 14 13 10 11 13 14 13 12 10 9 9 9 9 10 10 11 10 11 11 12 12 12 12 11 10 9 8 8 8 7 5 4 2 1 0 1 1 1 2 1 1 1 1 1 0
8 7 8 11 13 11 10 12 13 14 13 13 11 10 9 9 9 10 10 10 10 11 12 12 13 13 12 12 11 9 9 9 8 7 6 4 3 2 1 0 1 1 1 1 1 1 0 0 0
7 7 9 12 10 8 9 12 13 14 13 13 12 11 10 11 11 11 10 11 10 10 12 13 13 13 12 12 11 10 9 9 9 8 7 5 4 3 1 1 1 1 1 1 1 1 1 1 1
6 6 10 10 6 6 11 12 13 13 13 12 13 13 10 10 11 11 11 12 11 10 12 13 13 13 13 12 11 11 10 10 9 8 8 6 5 4 2 1 1 1 1 1 1 1 1 1 2
5 7 10 9 5 7 11 12 12 13 13 13 14 15 12 11 11 11 12 12 11 11 12 13 14 14 14 13 12 12 11 10 10 9 8 7 5 4 3 2 2 2 1 1 1 2 2 2 2
5 7 8 6 5 8 10 12 11 12 14 13 13 15 14 12 11 11 12 13 12 12 13 14 14 15 15 14 14 13 13 12 11 10 9 7 6 5 4 3 2 2 2 2 2 2 2 2 3
5 5 6 1 3 8 11 12 12 13 14 14 14 16 15 14 13 13 13 12 12 11 13 15 15 16 16 16 15 15 14 13 12 11 10 8 6 5 4 4 3 3 2 2 3 3 2 3 3
5 6 4 3 4 8 10 11 12 14 14 15 15 16 16 16 15 14 14 13 13 11 12 15 16 16 16 17 16 16 15 14 13 12 11 9 8 7 6 5 4 4 3 3 3 3 3 3 3
3 3 3 3 7 9 10 11 12 13 16 18 20 18 16 17 16 15 14 13 14 13 13 15 15 16 17 18 18 17 16 15 13 12 12 10 9 8 7 6 5 4 4 4 4 4 3 3 3
1 0 3 6 9 9 9 10 12 13 16 19 20 20 20 19 17 16 14 14 14 14 14 15 15 16 18 19 19 19 17 16 14 13 12 11 10 9 7 7 6 5 5 5 4 4 4 3 3
5 4 5 7 9 9 9 10 11 13 15 19 21 22 21 20 18 16 15 15 15 15 15 16 16 16 17 19 20 20 18 17 15 13 12 11 10 9 7 7 6 6 5 5 5 4 4 4 3
8 7 7 8 9 10 11 11 13 14 16 20 21 22 22 20 18 16 16 16 15 15 16 17 17 17 17 19 21 20 18 18 16 14 13 11 10 9 8 7 6 6 5 5 5 4 4 4 3
6 8 9 8 8 10 12 11 14 16 16 20 21 22 22 20 19 17 17 17 15 16 17 17 18 18 19 20 20 21 19 18 16 15 13 12 10 9 8 7 6 5 5 5 4 4 3 3 3
6 6 7 6 7 11 13 13 16 18 18 20 22 21 21 20 20 18 17 16 16 16 17 16 17 17 19 20 20 20 20 18 17 16 14 12 10 9 8 7 6 5 5 4 4 3 3 3 3
6 6 7 7 8 11 13 15 18 19 19 21 23 22 20 21 20 18 16 15 16 15 15 14 15 17 18 20 21 20 20 18 17 16 14 13 11 9 8 7 6 5 4 4 4 3 2 2 2
6 9 9 10 12 13 13 14 19 20 21 23 23 22 21 21 20 18 16 15 15 13 13 13 13 15 16 18 19 20 19 19 18 17 15 14 12 10 8 8 6 5 4 4 3 2 2 2 1
7 9 10 11 13 14 15 14 18 19 21 23 23 22 21 21 19 17 16 15 14 12 12 12 12 14 15 16 18 19 20 19 19 18 16 15 13 11 9 8 7 5 4 4 3 3 2 2 1
11 13 14 14 14 16 16 15 17 18 20 21 22 21 21 20 19 17 16 15 14 12 11 11 11 13 16 16 16 18 18 19 19 19 18 16 14 11 10 9 7 6 5 4 3 3 2 1 1
16 16 14 15 14 15 17 14 16 18 19 20 21 20 20 20 19 17 16 14 13 11 10 10 10 12 14 15 16 17 18 19 19 19 18 16 15 12 10 9 8 6 5 5 4 3 3 2 1
16 15 14 15 15 15 16 15 17 18 20 18 20 19 20 19 18 17 15 13 12 11 10 10 10 11 13 15 16 17 18 19 19 19 19 18 16 13 12 10 9 8 7 6 5 4 4 3 2
15 14 15 16 16 15 15 17 17 19 18 18 19 19 19 18 18 17 15 13 12 10 9 10 11 11 12 14 16 18 18 18 19 19 19 18 16 14 13 11 10 9 9 8 7 6 5 4 3
15 15 16 16 16 15 15 15 15 16 18 19 18 19 18 17 16 15 14 13 11 10 9 10 9 10 12 14 15 17 18 18 19 19 19 18 17 16 14 13 12 12 11 9 8 8 7 6 5
15 16 16 14 14 16 14 14 13 14 18 19 18 18 17 16 16 15 14 13 11 9 9 8 9 9 11 13 14 16 17 17 18 18 18 18 17 16 15 14 14 13 12 11 10 10 9 8 8
14 15 13 12 15 17 16 16 12 11 17 18 18 18 16 15 15 14 13 13 10 8 7 7 8 9 10 12 13 14 16 17 18 19 19 18 18 16 15 15 16 15 14 13 13 12 11 11 10
14 15 14 14 17 20 19 14 9 10 15 17 17 16 15 14 14 13 13 12 11 8 7 5 6 9 10 11 12 13 15 17 18 19 19 19 18 17 17 17 16 16 16 15 15 14 14 14 14
14 15 14 17 17 21 20 15 9 12 14 16 15 15 14 14 13 13 12 12 11 9 7 5 6 8 9 10 12 13 14 16 17 18 19 19 18 18 18 18 17 17 17 17 17 16 16 16 17
15 15 15 18 18 18 18 19 16 15 13 15 16 14 14 13 13 12 12 11 11 9 7 6 6 8 9 10 12 12 13 15 17 17 18 18 18 19 19 20 19 19 18 18 18 18 18 19 19
14 15 17 18 18 18 19 22 19 15 12 13 16 17 15 14 12 12 12 11 12 10 7 5 5 5 7 9 10 11 12 14 17 17 17 18 18 19 20 21 21 21 21 20 20 20 20 20 21
15 17 18 19 19 20 19 22 21 14 12 15 16 18 17 14 12 11 11 11 11 10 8 6 5 4 5 6 7 8 11 13 14 16 16 17 18 19 20 21 21 22 22 22 22 22 22 22 22
Wind_Direction
44 46 49 54 51 45 32 3 340 340 342 338 332 322 308 295 287 274 266 255 245 239 232 226 222 219 218 219 219 225 230 229 229 227 220 208 194 156 92 75 70 68 65 62 64 81 67 59 77
45 47 54 55 46 35 12 345 337 342 346 343 337 321 305 299 293 284 275 264 250 245 239 230 225 223 221 220 222 227 232 233 234 233 228 222 219 206 141 68 54 54 59 61 68 78 55 58 82
48 50 57 51 45 19 347 333 338 344 348 347 339 326 315 307 299 290 280 269 254 247 241 235 230 226 224 224 224 225 232 235 236 237 235 231 235 236 237 336 16 29 44 51 55 44 29 31 204
50 60 67 63 46 359 333 332 340 345 346 344 342 329 322 309 302 293 283 272 264 251 242 237 233 230 227 228 225 228 233 237 239 240 239 240 248 248 250 284 324 2 21 16 10 357 336 292 253
51 58 62 69 56 344 327 334 343 346 344 337 340 329 325 314 303 293 285 277 267 253 242 235 234 233 232 231 227 230 233 237 240 242 243 246 251 252 252 265 289 316 336 314 303 306 312 297 271
37 61 53 40 30 332 324 334 346 339 337 336 334 324 328 318 308 297 288 279 269 255 241 234 232 233 233 232 231 232 232 234 239 242 244 247 249 251 253 255 273 294 305 298 293 293 291 288 277
34 67 66 18 351 314 317 325 333 333 335 334 332 322 322 317 314 302 293 282 272 258 244 239 234 232 231 231 231 231 231 231 237 242 244 247 248 249 253 258 269 282 293 301 299 295 288 278 271
50 77 107 105 307 297 305 316 323 329 330 332 328 319 320 321 320 307 295 286 275 259 248 242 236 234 231 229 229 230 232 233 236 241 244 248 250 251 253 259 269 281 294 304 310 303 293 284 274
65 98 90 27 301 288 296 308 318 330 328 326 321 323 325 326 321 307 296 286 276 259 252 245 239 235 232 229 229 229 231 232 236 241 244 246 249 252 255 260 270 278 287 296 308 309 302 288 278
70 92 29 328 281 284 296 311 322 324 320 321 323 325 325 326 319 307 296 287 276 266 253 249 240 237 232 230 229 229 230 231 236 241 242 244 248 252 257 262 270 276 279 285 297 303 297 290 284
2 298 283 281 285 288 299 312 319 317 313 319 322 329 327 324 316 307 298 289 275 267 257 249 244 242 234 231 230 228 228 230 234 241 241 243 245 249 257 262 270 273 277 283 287 291 293 286 283
309 288 266 281 294 301 305 310 314 315 312 320 324 326 327 323 314 307 299 292 283 271 264 255 243 243 238 230 228 226 224 226 230 238 237 238 241 245 254 261 268 273 277 284 288 286 287 278 278
293 298 293 289 296 309 309 311 312 307 315 322 323 323 324 322 318 307 295 287 282 274 266 256 247 241 237 231 227 224 222 223 229 234 235 236 242 244 247 263 272 278 283 285 285 282 278 276 274
282 278 281 283 299 310 311 310 304 307 318 323 324 324 322 320 317 310 300 288 283 277 272 260 251 243 235 229 228 225 223 224 228 233 235 235 239 244 252 266 274 282 287 285 282 278 275 277 276
298 290 292 300 302 302 310 312 310 316 320 322 325 324 324 324 318 314 304 293 285 282 273 261 250 242 232 230 230 227 224 227 229 230 231 233 237 245 251 259 267 278 285 283 277 275 279 282 277
314 307 310 312 293 296 309 309 310 316 319 320 324 326 328 328 321 316 308 296 293 283 270 262 250 241 233 230 230 230 227 228 228 228 229 231 234 238 246 254 260 270 277 277 274 275 274 274 275
321 314 313 301 288 292 299 301 308 315 319 320 324 327 327 327 324 317 311 301 295 283 273 261 250 239 234 232 229 228 228 227 226 225 227 230 232 236 244 249 255 261 270 268 261 254 251 265 285
298 299 293 284 282 289 294 294 298 311 317 319 323 326 326 325 324 319 312 304 299 290 281 267 253 240 234 232 233 232 228 223 223 224 226 228 230 233 237 245 248 248 252 256 250 237 242 261 281
270 260 256 262 266 278 287 291 298 306 312 317 322 327 328 326 325 322 316 307 301 298 289 273 258 243 235 232 233 229 226 221 223 226 224 226 229 231 232 238 240 238 237 240 242 230 233 248 275
266 263 256 259 267 278 285 288 291 300 305 316 322 325 328 328 326 323 320 310 304 296 286 273 260 248 236 232 231 227 224 222 220 220 219 221 225 227 228 231 233 233 232 234 235 230 231 239 253
265 268 262 260 265 273 285 288 290 300 307 317 323 325 327 329 328 328 324 316 308 297 280 268 258 247 239 235 230 226 224 222 221 220 219 220 221 222 223 227 230 232 232 231 231 231 228 232 236
265 266 264 260 263 266 272 282 289 301 311 321 327 329 330 331 331 330 327 320 312 301 286 271 253 243 237 235 230 226 225 222 220 221 218 218 217 218 223 226 228 230 230 230 231 234 233 236 238
259 254 258 261 263 261 264 272 284 303 316 322 327 330 331 332 334 333 331 325 314 301 288 277 256 242 237 232 229 223 222 222 222 220 220 217 217 219 224 226 228 229 231 230 232 237 240 241 244
258 254 254 254 261 264 263 269 271 294 313 319 322 326 328 330 333 335 336 332 322 310 295 273 248 242 237 232 228 224 222 222 220 220 220 219 219 220 223 225 228 230 232 233 236 239 243 245 248
258 255 251 259 267 274 268 259 254 288 308 314 316 321 327 330 333 336 339 339 330 318 305 276 249 240 236 233 227 224 222 222 220 219 220 220 220 222 226 228 229 230 233 236 239 242 247 249 252
247 250 247 250 270 281 285 265 243 278 302 308 312 317 325 328 332 337 341 344 343 333 315 284 251 243 239 234 228 224 222 222 222 219 220 223 224 226 230 231 230 233 236 239 241 244 248 251 253
241 239 244 256 267 286 292 292 271 273 290 305 313 316 321 326 332 337 340 346 348 342 325 296 266 244 236 228 224 221 222 222 220 219 222 226 227 228 231 234 235 237 240 242 244 246 250 254 257
244 231 239 244 257 267 281 286 268 267 282 302 310 316 318 324 331 336 341 348 351 346 332 310 275 246 236 230 224 224 222 219 221 223 225 228 230 231 233 235 238 240 242 244 247 250 253 256 259
257 240 233 238 242 256 270 278 284 285 281 296 306 312 312 314 324 333 339 343 347 346 338 322 303 261 238 228 224 225 220 220 221 224 226 230 233 236 238 238 240 243 245 248 251 254 257 259 261
246 249 243 241 241 244 257 275 285 288 292 291 297 299 303 305 315 324 332 337 341 342 341 331 312 292 248 226 221 222 222 223 225 227 231 235 238 239 239 240 242 245 247 250 253 256 259 261 263
Height
5888 5887 5887 5886 5885 5884 5885 5886 5884 5882 5881 5880 5878 5877 5876 5875 5875 5877 5874 5874 5876 5876 5877 5878 5880 5881 5882 5884 5885 5886 5886 5887 5888 5888 5888 5887 5887 5887 5887 5887 5886 5886 5886 5886 5886 5886 5886 5886 5885
5889 5889 5888 5886 5885 5886 5888 5886 5884 5883 5881 5880 5878 5877 5876 5874 5874 5874 5873 5874 5875 5876 5877 5878 5879 5880 5882 5883 5884 5885 5886 5887 5888 5888 5888 5888 5888 5887 5887 5887 5887 5887 5886 5886 5886 5886 5886 5886 5886
5890 5889 5889 5886 5887 5889 5890 5887 5885 5883 5881 5880 5878 5877 5876 5873 5873 5873 5873 5873 5874 5875 5876 5877 5878 5880 5881 5883 5884 5885 5886 5887 5887 5888 5888 5888 5888 5888 5887 5887 5887 5887 5887 5887 5887 5886 5886 5886 5886
5890 5890 5889 5889 5891 5892 5891 5888 5885 5883 5881 5880 5878 5877 5875 5874 5873 5873 5872 5872 5873 5874 5875 5876 5877 5879 5880 5882 5883 5885 5886 5887 5887 5888 5888 5888 5888 5888 5888 5887 5887 5887 5887 5887 5887 5887 5886 5886 5886
5891 5890 5888 5889 5891 5893 5891 5888 5886 5884 5882 5879 5878 5876 5874 5874 5873 5872 5872 5871 5872 5873 5873 5874 5876 5877 5879 5880 5882 5884 5885 5886 5887 5887 5888 5888 5888 5888 5888 5887 5887 5887 5887 5887 5887 5887 5887 5886 5886
5892 5890 5890 5890 5892 5894 5892 5889 5887 5885 5882 5880 5878 5876 5874 5873 5872 5871 5870 5870 5870 5871 5872 5873 5874 5876 5877 5879 5881 5883 5884 5885 5886 5887 5887 5887 5887 5888 5887 5887 5887 5887 5887 5887 5887 5887 5887 5886 5886
5892 5891 5891 5893 5895 5894 5892 5889 5887 5885 5882 5880 5878 5875 5873 5871 5870 5869 5869 5868 5868 5869 5870 5871 5872 5874 5876 5878 5879 5881 5883 5884 5885 5886 5887 5887 5887 5887 5887 5887 5887 5887 5887 5887 5887 5887 5887 5886 5886
5892 5892 5891 5892 5895 5894 5892 5889 5886 5884 5882 5879 5877 5874 5872 5870 5868 5868 5867 5866 5866 5867 5868 5869 5870 5872 5874 5876 5878 5879 5881 5883 5884 5885 5886 5886 5887 5887 5887 5887 5887 5887 5887 5887 5887 5886 5886 5886 5886
5892 5892 5891 5892 5895 5894 5891 5889 5886 5884 5881 5878 5874 5871 5871 5869 5868 5867 5866 5864 5864 5864 5865 5865 5867 5869 5871 5874 5875 5878 5879 5881 5882 5884 5885 5885 5886 5886 5886 5886 5886 5886 5886 5886 5886 5886 5886 5886 5886
5892 5892 5892 5893 5893 5892 5890 5888 5886 5883 5880 5877 5874 5871 5869 5868 5866 5865 5863 5862 5861 5861 5862 5862 5864 5866 5869 5871 5873 5875 5877 5879 5881 5882 5883 5884 5885 5885 5886 5886 5886 5886 5886 5886 5886 5886 5885 5885 5885
5891 5891 5892 5892 5891 5890 5888 5887 5885 5882 5880 5876 5873 5870 5868 5866 5864 5862 5861 5860 5858 5858 5859 5859 5860 5863 5866 5868 5871 5873 5875 5877 5879 5881 5882 5883 5884 5884 5885 5885 5885 5885 5885 5885 5885 5885 5885 5885 5885
5890 5890 5890 5890 5889 5888 5887 5885 5884 5881 5879 5875 5872 5868 5866 5864 5862 5860 5858 5857 5855 5855 5856 5857 5858 5860 5863 5865 5868 5870 5873 5875 5877 5879 5880 5881 5883 5883 5884 5884 5884 5884 5884 5885 5885 5885 5885 5885 5885
5889 5888 5888 5888 5887 5886 5885 5884 5882 5879 5876 5874 5870 5867 5864 5862 5859 5857 5855 5854 5853 5852 5852 5853 5855 5857 5859 5862 5865 5868 5870 5873 5875 5877 5878 5880 5881 5882 5883 5883 5883 5883 5884 5884 5884 5884 5884 5884 5884
5887 5887 5886 5886 5885 5885 5884 5882 5880 5876 5874 5872 5868 5865 5862 5859 5856 5854 5852 5850 5850 5849 5848 5848 5850 5853 5855 5859 5862 5865 5868 5870 5873 5875 5877 5878 5880 5881 5882 5882 5882 5883 5883 5883 5883 5883 5883 5883 5883
5884 5884 5883 5883 5883 5884 5883 5881 5878 5874 5872 5870 5867 5863 5860 5857 5854 5851 5849 5847 5847 5846 5845 5845 5846 5849 5852 5855 5858 5861 5865 5868 5871 5873 5875 5877 5878 5879 5880 5881 5882 5882 5882 5882 5882 5882 5882 5882 5883
5882 5882 5881 5882 5882 5882 5883 5880 5876 5872 5871 5868 5865 5861 5858 5855 5852 5849 5846 5844 5843 5842 5842 5842 5844 5847 5849 5852 5855 5859 5862 5865 5868 5871 5873 5875 5877 5878 5879 5880 5881 5881 5881 5881 5881 5882 5882 5882 5882
5880 5881 5881 5882 5881 5882 5881 5879 5875 5871 5869 5866 5863 5860 5857 5853 5850 5847 5844 5842 5840 5839 5839 5840 5841 5844 5846 5849 5852 5855 5859 5863 5866 5869 5871 5873 5875 5877 5878 5879 5880 5880 5880 5881 5881 5881 5882 5882 5881
5880 5881 5882 5882 5881 5880 5879 5877 5873 5870 5868 5864 5861 5858 5855 5852 5848 5845 5842 5840 5838 5837 5837 5837 5838 5841 5843 5846 5849 5853 5856 5860 5863 5866 5869 5871 5873 5875 5876 5878 5879 5879 5880 5880 5881 5881 5881 5881 5881
5878 5879 5880 5880 5879 5878 5876 5875 5871 5869 5866 5863 5859 5856 5853 5849 5846 5843 5840 5838 5836 5835 5835 5835 5836 5838 5841 5844 5847 5850 5854 5857 5860 5863 5866 5869 5871 5873 5875 5877 5877 5878 5879 5880 5880 5881 5881 5881 5881
5875 5875 5875 5876 5876 5875 5873 5872 5868 5866 5863 5860 5857 5854 5851 5848 5844 5841 5838 5835 5834 5834 5833 5834 5834 5836 5838 5841 5844 5847 5851 5854 5857 5860 5863 5866 5869 5871 5873 5875 5876 5877 5878 5879 5880 5880 5880 5881 5881
5871 5871 5872 5872 5872 5871 5870 5868 5865 5862 5859 5857 5855 5852 5849 5846 5842 5840 5836 5833 5832 5832 5832 5832 5832 5834 5836 5839 5841 5845 5848 5851 5854 5858 5861 5864 5866 5869 5871 5873 5875 5876 5877 5878 5879 5879 5880 5880 5880
5867 5868 5868 5868 5868 5868 5868 5864 5861 5859 5856 5854 5853 5850 5847 5844 5841 5838 5835 5833 5831 5830 5830 5830 5831 5832 5834 5836 5839 5842 5845 5848 5852 5855 5858 5861 5863 5866 5869 5871 5873 5874 5875 5877 5877 5878 5879 5879 5880
5863 5864 5864 5864 5864 5864 5863 5861 5859 5856 5855 5853 5851 5849 5846 5844 5840 5837 5835 5832 5830 5829 5828 5828 5828 5830 5832 5834 5836 5839 5842 5845 5849 5852 5855 5858 5861 5864 5866 5869 5870 5872 5874 5875 5876 5877 5877 5878 5879
5859 5859 5860 5860 5860 5860 5859 5857 5855 5855 5854 5852 5850 5848 5846 5843 5840 5837 5834 5831 5829 5827 5826 5826 5826 5828 5829 5832 5834 5836 5839 5842 5846 5849 5853 5856 5858 5861 5864 5866 5868 5870 5871 5873 5874 5875 5876 5876 5877
5855 5856 5857 5857 5857 5856 5853 5851 5851 5852 5852 5851 5849 5847 5844 5842 5839 5836 5833 5830 5828 5826 5824 5824 5825 5826 5828 5829 5831 5834 5837 5840 5843 5846 5849 5853 5856 5858 5861 5863 5865 5867 5869 5870 5871 5873 5873 5874 5875
5852 5854 5855 5856 5855 5852 5848 5846 5846 5849 5849 5848 5847 5845 5843 5841 5838 5835 5833 5830 5827 5825 5823 5823 5823 5824 5825 5827 5829 5832 5834 5837 5840 5843 5846 5850 5853 5855 5858 5860 5862 5864 5866 5867 5869 5870 5871 5871 5872
5848 5850 5853 5853 5852 5850 5847 5844 5842 5844 5846 5845 5844 5844 5841 5839 5837 5835 5832 5830 5827 5825 5823 5822 5822 5823 5824 5825 5827 5829 5831 5834 5837 5840 5843 5846 5849 5852 5855 5857 5859 5861 5862 5864 5865 5866 5867 5868 5869
5845 5847 5849 5850 5849 5849 5848 5844 5840 5839 5841 5842 5841 5840 5839 5838 5836 5834 5831 5829 5827 5825 5823 5822 5821 5822 5823 5824 5825 5827 5828 5831 5834 5837 5841 5843 5846 5848 5851 5853 5855 5857 5859 5860 5862 5863 5864 5864 5865
5842 5843 5844 5846 5847 5847 5846 5844 5838 5837 5837 5838 5839 5838 5837 5836 5835 5833 5831 5829 5827 5824 5823 5822 5821 5821 5822 5823 5824 5825 5827 5829 5832 5835 5837 5840 5842 5844 5847 5849 5851 5853 5855 5856 5857 5858 5859 5860 5860
5839 5840 5841 5841 5842 5842 5843 5843 5838 5834 5833 5835 5836 5836 5835 5834 5833 5832 5830 5828 5826 5824 5822 5822 5821 5821 5821 5822 5823 5824 5826 5828 5830 5832 5834 5836 5838 5840 5843 5845 5847 5849 5850 5852 5853 5854 5854 5855 5855